Overview Statistics Trail Chart Weather Telemetry Raw packets
 

This is the latest recevied weather packets stored in our database for station/object N7ZAP. If no packets are shown the sender has not sent any weather packets the latest 10 day(s).

<< 69 70 71 72 73 74 75 >>
Time Temp. Humidity Pressure Rain* Wind** Luminosity Snow
1788199515 31.11° C 31% 1022.3 hPa 0 mm - - -
1788199210 31.67° C 30% 1022.3 hPa 0 mm - - -
1788198906 31.67° C 32% 1022.5 hPa 0 mm - - -
1788198602 31.67° C 30% 1022.1 hPa 0 mm - - -
1788198297 32.78° C 29% 1022.3 hPa 0 mm - - -
1788197996 32.22° C 29% 1022.3 hPa 0 mm - - -
1788197695 32.22° C 29% 1022.3 hPa 0 mm - - -
1788197391 32.78° C 28% 1022.3 hPa 0 mm - - -
1788197087 32.78° C 28% 1022.1 hPa 0 mm - - -
1788196782 32.22° C 28% 1022.3 hPa 0 mm - - -
1788196477 32.22° C 29% 1022.3 hPa 0 mm - - -
1788196174 31.67° C 30% 1022.4 hPa 0 mm - - -
1788195870 31.11° C 30% 1022.4 hPa 0 mm - - -
1788195567 31.11° C 31% 1022.1 hPa 0 mm - - -
1788195262 30.56° C 32% 1022.1 hPa 0 mm - - -
1788194958 30.56° C 32% 1022 hPa 0 mm - - -
1788194655 30.56° C 32% 1022.1 hPa 0 mm - - -
1788194350 30° C 33% 1021.9 hPa 0 mm - - -
1788194045 30° C 34% 1021.9 hPa 0 mm - - -
1788193744 30° C 34% 1022.1 hPa 0 mm - - -
1788193439 29.44° C 35% 1021.8 hPa 0 mm - - -
1788193137 29.44° C 34% 1021.9 hPa 0 mm - - -
1788192834 28.89° C 35% 1021.7 hPa 0 mm - - -
1788192535 28.33° C 36% 1021.4 hPa 0 mm - - -
1788192229 28.33° C 37% 1021.7 hPa 0 mm - - -

* Rain latest hour (hover to see other rain measurements)
** Current wind speed in m/s (hover to see current wind gust speed)